Location: Rounton
(54.4000°N, 1.3500°W)
Time: 22:02:12
(UTC+00:00)

Vanguard 3 - Pass Details

Date: 05 December 2021
Orbit: 508 x 3260 km, 33.3° (Epoch: 17 January)

Event Time Altitude Azimuth Distance (km) Brightness Sun altitude
Rises 05:11:34 0° 242° (WSW) 7,176 - -24.4°
Exits shadow 05:17:02 10° 235° (SW) 6,201 11.2 -23.6°
Reaches altitude 10° 05:17:03 10° 235° (SW) 6,198 11.2 -23.6°
Maximum altitude 05:33:13 34° 181° (S) 4,068 10.7 -21.3°
Drops below altitude 10° 05:45:45 10° 123° (ESE) 4,823 12.1 -19.5°
Sets 05:49:22 0° 115° (ESE) 5,471 12.9 -19.0°
